Philadelphia Wings Airport, PA

10:36 AM EDT on October 22, 2019 (GMT -0400)
Philadelphia Wings Airport

Weather History for KLOM - September, 2019

Change the Weather History Date:

Tuesday, September 17, 2019

  Actual Average (WUND) Record (WUND)
Temperature  
Mean Temperature 64 °F -  
Max Temperature 77 °F - - (-1)
Min Temperature 51 °F - - (-1)
Degree Days  
Heating Degree Days 1    
Growing Degree Days 14 (Base 50)    
Moisture  
Dew Point 55 °F    
Average Humidity 71    
Maximum Humidity 98    
Minimum Humidity 36    
Precipitation  
Precipitation 0.00 in - - ()
Sea Level Pressure  
Sea Level Pressure 30.12 in    
Wind  
Wind Speed 3 mph (NE)    
Max Wind Speed 9 mph    
Max Gust Speed -    
Visibility 10 miles    
Events      
Averages and records for this station are not official NWS values.
T = Trace of Precipitation, MM = Missing Value Source: NWS Daily Summary

Daily Weather History Graph

Daily Weather History Graph

Search for Another Location

Airport or City:

Astronomy

Sep. 17, 2019 Rise Set
Actual Time 6:43 AM EDT 7:06 PM EDT
Civil Twilight 6:16 AM EDT 7:34 PM EDT
Nautical Twilight 5:44 AM EDT 8:05 PM EDT
Astronomical Twilight 5:11 AM EDT 8:38 PM EDT
Moon 9:08 PM EDT (9/17) 9:45 AM EDT (9/17)
Length of Visible Light 13h 17m
Length of Day
12h 23m
Waning Gibbous, 89% of the Moon is Illuminated
Sep 17
Waning Gibbous
Sep 21
Last Quarter
Sep 28
New
Oct 5
First Quarter
Oct 13
Full

Hourly Weather History & Observations

Time (EDT) Temp. Dew Point Humidity Pressure Visibility Wind Dir Wind Speed Gust Speed Precip Events Conditions
12:15 AM 63.9 °F 62.6 °F 96% 30.06 in 10.0 mi Calm Calm - N/A   Mostly Cloudy
12:35 AM 63.1 °F 62.4 °F 97% 30.06 in 10.0 mi Calm Calm - N/A   Mostly Cloudy
12:55 AM 64.6 °F 63.9 °F 98% 30.06 in 10.0 mi Calm Calm - N/A   Overcast
1:15 AM 64.0 °F 63.3 °F 97% 30.07 in 10.0 mi Calm Calm - N/A   Overcast
1:35 AM 64.0 °F 63.5 °F 98% 30.07 in 10.0 mi Calm Calm - N/A   Overcast
1:55 AM 63.9 °F 63.3 °F 98% 30.07 in 10.0 mi Calm Calm - N/A   Mostly Cloudy
2:15 AM 63.7 °F 63.0 °F 97% 30.07 in 10.0 mi Calm Calm - N/A   Overcast
2:35 AM 64.2 °F 63.1 °F 96% 30.07 in 10.0 mi Calm Calm - N/A   Mostly Cloudy
3:15 AM 65.5 °F 61.7 °F 88% 30.07 in 10.0 mi NE 3.5 mph - N/A   Mostly Cloudy
3:35 AM 65.8 °F 62.1 °F 88% 30.07 in 10.0 mi NE 3.5 mph - N/A   Overcast
3:55 AM 65.7 °F 62.1 °F 88% 30.07 in 10.0 mi Calm Calm - N/A   Overcast
4:15 AM 65.7 °F 62.1 °F 88% 30.07 in 10.0 mi NE 4.6 mph - N/A   Overcast
4:35 AM 65.8 °F 62.4 °F 89% 30.08 in 10.0 mi NE 3.5 mph - N/A   Overcast
4:55 AM 65.7 °F 62.8 °F 90% 30.08 in 10.0 mi NE 5.8 mph - N/A   Overcast
5:15 AM 65.7 °F 63.0 °F 91% 30.08 in 10.0 mi NE 4.6 mph - N/A   Overcast
5:35 AM 65.5 °F 63.0 °F 92% 30.09 in 10.0 mi NE 4.6 mph - N/A   Overcast
5:55 AM 65.5 °F 63.3 °F 93% 30.09 in 10.0 mi NE 4.6 mph - N/A   Overcast
6:15 AM 65.3 °F 62.4 °F 90% 30.10 in 10.0 mi NE 6.9 mph - N/A   Overcast
6:35 AM 64.9 °F 61.0 °F 87% 30.11 in 10.0 mi NNE 4.6 mph - N/A   Overcast
6:55 AM 64.0 °F 59.9 °F 86% 30.12 in 10.0 mi NE 6.9 mph - N/A   Mostly Cloudy
7:15 AM 63.7 °F 57.6 °F 80% 30.13 in 10.0 mi NE 6.9 mph - N/A   Mostly Cloudy
7:35 AM 63.5 °F 55.8 °F 76% 30.13 in 10.0 mi NE 6.9 mph - N/A   Scattered Clouds
7:55 AM 63.9 °F 55.2 °F 73% 30.14 in 10.0 mi ENE 4.6 mph - N/A   Scattered Clouds
8:15 AM 64.2 °F 54.9 °F 72% 30.14 in 10.0 mi NE 6.9 mph - N/A   Overcast
8:35 AM 64.9 °F 54.9 °F 70% 30.15 in 10.0 mi ENE 6.9 mph - N/A   Scattered Clouds
8:55 AM 65.7 °F 54.1 °F 66% 30.15 in 10.0 mi NE 5.8 mph - N/A   Clear
9:15 AM 66.7 °F 54.0 °F 63% 30.16 in 10.0 mi NE 6.9 mph - N/A   Scattered Clouds
9:35 AM 67.5 °F 53.4 °F 61% 30.17 in 10.0 mi ENE 8.1 mph - N/A   Mostly Cloudy
9:55 AM 68.4 °F 53.4 °F 59% 30.17 in 10.0 mi East 6.9 mph - N/A   Mostly Cloudy
10:15 AM 69.3 °F 53.4 °F 57% 30.17 in 10.0 mi ENE 6.9 mph - N/A   Scattered Clouds
10:35 AM 70.3 °F 51.6 °F 51% 30.17 in 10.0 mi East 6.9 mph - N/A   Clear
11:15 AM 71.6 °F 51.1 °F 48% 30.17 in 10.0 mi East 6.9 mph - N/A   Clear
11:35 AM 72.1 °F 51.3 °F 48% 30.16 in 10.0 mi ENE 4.6 mph - N/A   Clear
11:55 AM 72.9 °F 52.0 °F 48% 30.16 in 10.0 mi NNE 5.8 mph - N/A   Clear
12:15 PM 73.6 °F 51.8 °F 46% 30.16 in 10.0 mi North 4.6 mph - N/A   Clear
12:35 PM 73.2 °F 51.8 °F 47% 30.16 in 10.0 mi NE 6.9 mph - N/A   Clear
12:55 PM 74.1 °F 52.5 °F 47% 30.15 in 10.0 mi North 5.8 mph - N/A   Clear
1:10 PM 75.2 °F 51.4 °F 43% 30.15 in 10.0 mi NE 3.5 mph - N/A   Clear
1:35 PM 75.0 °F 50.9 °F 43% 30.14 in 10.0 mi North 4.6 mph - N/A   Clear
1:55 PM 76.3 °F 48.6 °F 38% 30.13 in 10.0 mi ENE 6.9 mph - N/A   Clear
2:15 PM 76.1 °F 49.3 °F 39% 30.13 in 10.0 mi Calm Calm - N/A   Clear
2:35 PM 76.5 °F 49.1 °F 38% 30.12 in 10.0 mi ENE 9.2 mph - N/A   Clear
2:55 PM 76.8 °F 49.1 °F 38% 30.12 in 10.0 mi North 6.9 mph - N/A   Clear
3:15 PM 76.6 °F 48.4 °F 37% 30.11 in 10.0 mi NE 9.2 mph - N/A   Clear
3:35 PM 76.6 °F 48.7 °F 37% 30.11 in 10.0 mi NE 5.8 mph - N/A   Clear
3:55 PM 76.3 °F 49.1 °F 38% 30.10 in 10.0 mi Calm Calm - N/A   Clear
4:15 PM 77.2 °F 51.8 °F 41% 30.10 in 10.0 mi NNE 6.9 mph - N/A   Clear
4:35 PM 77.0 °F 49.6 °F 38% 30.09 in 10.0 mi North 5.8 mph - N/A   Clear
4:55 PM 76.1 °F 47.5 °F 36% 30.10 in 10.0 mi North 3.5 mph - N/A   Clear
5:15 PM 75.2 °F 46.9 °F 37% 30.10 in 10.0 mi NE 6.9 mph - N/A   Clear
5:35 PM 74.8 °F 48.2 °F 39% 30.10 in 10.0 mi NNE 4.6 mph - N/A   Clear
5:55 PM 73.9 °F 47.8 °F 40% 30.10 in 10.0 mi NNE 4.6 mph - N/A   Clear
6:15 PM 72.9 °F 48.2 °F 42% 30.10 in 10.0 mi NE 4.6 mph - N/A   Clear
6:35 PM 70.9 °F 49.3 °F 46% 30.10 in 10.0 mi NE 3.5 mph - N/A   Clear
6:55 PM 64.9 °F 57.2 °F 76% 30.11 in 10.0 mi Calm Calm - N/A   Clear
7:15 PM 61.5 °F 56.8 °F 85% 30.11 in 10.0 mi Calm Calm - N/A   Clear
7:35 PM 59.9 °F 56.7 °F 89% 30.11 in 10.0 mi Calm Calm - N/A   Clear
7:55 PM 59.0 °F 55.8 °F 89% 30.12 in 10.0 mi Calm Calm - N/A   Clear
8:15 PM 58.3 °F 55.0 °F 89% 30.13 in 10.0 mi Calm Calm - N/A   Clear
8:35 PM 57.4 °F 54.3 °F 90% 30.13 in 10.0 mi Calm Calm - N/A   Clear
8:55 PM 56.7 °F 54.1 °F 91% 30.14 in 10.0 mi Calm Calm - N/A   Clear
9:15 PM 55.9 °F 53.6 °F 92% 30.14 in 10.0 mi Calm Calm - N/A   Clear
9:35 PM 55.0 °F 53.6 °F 95% 30.14 in 10.0 mi Calm Calm - N/A   Clear
9:55 PM 54.1 °F 52.0 °F 92% 30.15 in 10.0 mi Calm Calm - N/A   Clear
10:15 PM 53.2 °F 51.6 °F 94% 30.15 in 10.0 mi Calm Calm - N/A   Clear
10:35 PM 52.5 °F 51.4 °F 96% 30.15 in 10.0 mi Calm Calm - N/A   Clear
10:55 PM 52.3 °F 50.9 °F 95% 30.15 in 10.0 mi Calm Calm - N/A   Clear
11:15 PM 52.7 °F 52.0 °F 97% 30.15 in 10.0 mi Calm Calm - N/A   Clear
11:35 PM 51.8 °F 50.9 °F 97% 30.15 in 10.0 mi Calm Calm - N/A   Clear
11:55 PM 52.2 °F 51.3 °F 97% 30.16 in 10.0 mi Calm Calm - N/A   Clear